Regional Weather Roundup
Issued by NWS

Home | Current Version | Previous Version | Text Only | Print | Product List | Glossary Off
Versions: 1 2 3 4 5 6 7 8 9 10 11 12 13 14 15 16 17 18 19 20 21 22 23 24 25 26 27 28 29 30 31 32 33 34 35 36 37 38 39 40 41 42 43 44 45 46 47 48 49 50

000
ASUS43 KMPX 221010
RWRMN
WEATHER ROUNDUP FOR MINNESOTA
NATIONAL WEATHER SERVICE TWIN CITIES/CHANHASSEN MN
500 AM CDT MON MAY 22 2017


NOTE: "FAIR" INDICATES FEW OR NO CLOUDS BELOW 12,000 FEET WITH NO
SIGNIFICANT WEATHER AND/OR OBSTRUCTIONS TO VISIBILITY. N/A MEANS
CURRENT SKY AND/OR WEATHER CONDITIONS ARE NOT AVAILABLE.

MNZ060>063-068>070-221100-
   Twin Cities Metro

CITY           SKY/WX    TMP DP  RH WIND       PRES   REMARKS
TWIN CITIES    CLOUDY    46  41  82 SW7       29.88F
ST PAUL        MOCLDY    44  42  93 CALM      29.89F
CRYSTAL        MOCLDY    45  39  79 SW6       29.86F
BLAINE         PTCLDY    45  45 100 SW5       29.87S
LAKEVILLE      MOCLDY    45  43  93 SW5       29.89F
EDEN PRAIRIE   MOCLDY    46  42  86 SW7       29.87F
SOUTH ST PAUL  CLOUDY    46  43  89 W5        29.88F
LAKE ELMO      FAIR      43  41  93 SW6       29.88F
$$
MNZ001>005-007-008-013>017-022>024-027-028-221100-
   Northwest Minnesota

CITY           SKY/WX    TMP DP  RH WIND       PRES   REMARKS
BEMIDJI        LGT RAIN  43  43  99 W8        29.78S
HALLOCK        CLOUDY    48  45  87 NW9       29.80F
ROSEAU         CLOUDY    45  41  87 NW6       29.78S
WARROAD        CLOUDY    45  41  87 W3        29.78S
THIEF RVR FALL LGT RAIN  45  44  97 W9        29.82S
CROOKSTON      CLOUDY    45  45 100 W10       29.84S
FOSSTON        RAIN      43  43 100 NW9G16    29.82S
DETROIT LAKES  DRIZZLE   43  41  93 W10       29.85S
MOORHEAD       CLOUDY    45  39  81 W8        29.87F
PARK RAPIDS    CLOUDY    45  40  82 W14       29.80S
MAHNOMEN       DRIZZLE   43  42  95 W13       29.83S
$$
MNZ006-009>011-018-025>026-221100-
   North Central Minnesota

CITY           SKY/WX    TMP DP  RH WIND       PRES   REMARKS
BAUDETTE       CLOUDY    45  43  93 NW9       29.74F
FLAG ISLAND    CLOUDY    45  43  93 NW13      29.75S
INTL FALLS     CLOUDY    44  42  93 W6        29.72S
WASKISH        CLOUDY    45  43  93 NW8       29.76S
BIG FORK       DRIZZLE   45  43  93 SW5       29.74S
LONGVILLE      CLOUDY    45  43  93 W8        29.78S
GRAND RAPIDS   CLOUDY    45  42  89 W7        29.78S
CRANE LAKE     CLOUDY    43  43 100 CALM      29.72F FOG
ORR            CLOUDY    43  41  93 W5        29.70S FOG
COOK           LGT RAIN  45  43  93 W8        29.73S
WALKER         CLOUDY    42  41  95 W7        29.78S
$$
MNZ012-019>021-037-221100-
   Northeast Minnesota

CITY           SKY/WX    TMP DP  RH WIND       PRES   REMARKS
DULUTH         CLOUDY    45  43  93 W10       29.76S
ELY            CLOUDY    45  43  93 W7        29.71S FOG
HIBBING        CLOUDY    43  42  97 W3        29.74F
EVELETH        CLOUDY    44  41  90 SW5       29.74F
DULUTH HARBOR  CLOUDY    46  45  93 SW9       29.78S
TWO HARBORS    CLOUDY    48  43  81 W8        29.73S
SILVER BAY     CLOUDY    46  45  93 SW3       29.71S
GRAND MARAIS     N/A     40  40 100 W3        29.69S
G MARAIS ARPRT CLOUDY    43  39  87 W5        29.68S FOG
$$
MNZ029>031-032-039>041-046>048-054>057-064-221100-
   West Central Minnesota

CITY           SKY/WX    TMP DP  RH WIND       PRES   REMARKS
FERGUS FALLS   PTCLDY    39  39 100 NW7       29.87S
WHEATON        CLOUDY    43  39  87 CALM      29.90F
MORRIS         CLEAR     39  37  93 NW6       29.87S
ALEXANDRIA     CLEAR     42  40  92 W8        29.87F
ELBOW LAKE     FAIR      41  40  97 CALM      29.87F
WADENA         PTCLDY    43  41  93 W7        29.83S
GLENWOOD       PTCLDY    39  39 100 W7        29.87F
APPLETON       CLEAR     39  37  93 CALM      29.88S
BENSON         CLEAR     39  37  93 CALM      29.89F
ORTONVILLE     CLEAR     39  36  87 CALM      29.88S
MADISON        CLEAR     43  43 100 CALM      29.87F
WILLMAR        FAIR      41  39  93 CALM      29.89F
$$
MNZ033>034-036-042>043-049>051-058-059-221100-
   Central Minnesota

CITY           SKY/WX    TMP DP  RH WIND       PRES   REMARKS
ST CLOUD       CLEAR     40  40 100 SW7       29.86S
SAUK CENTRE    FAIR      39  38  97 W7        29.86S
PAYNESVILLE    PTCLDY    40  40 100 W5        29.88S
AITKIN         CLOUDY    45  41  87 W5        29.78F
PINE RIVER     CLOUDY    45  41  87 W7        29.83F
BRAINERD       CLOUDY    43  41  93 W10       29.81F
STAPLES        CLOUDY    41  39  93 W7        29.83F
LONG PRAIRIE   FAIR      41  37  87 W7        29.85F
LITTLE FALLS   CLOUDY    41  37  87 CALM      29.84F
LITCHFIELD     CLEAR     45  41  87 CALM      29.88F
BUFFALO        MOCLDY    44  40  88 S3        29.88S
MAPLE LAKE     MOCLDY    44  42  93 W3        29.88S
HUTCHINSON     CLOUDY    42  40  93 CALM      29.89F
$$
MNZ037-044-045-052-053-221100-
   East Central Minnesota

CITY           SKY/WX    TMP DP  RH WIND       PRES   REMARKS
PRINCETON      PTCLDY    43  41  93 SW3       29.85F
MORA           MOCLDY    43  41  93 W5        29.85S
CAMBRIDGE      PTCLDY    46  43  87 SW5       29.83F
RUSH CITY      CLOUDY    44  42  92 SW7       29.84F
MOOSE LAKE     CLOUDY    45  41  87 SW6       29.78F
HINCKLEY       CLOUDY    45  43  93 SW7       29.83S
CLOQUET        CLOUDY    45  41  87 W9        29.77S
MCGREGOR       CLOUDY    45  43  93 W6        29.79F
$$
MNZ071>073-080-081-089-090-097-098-221100-
   Southwest Minnesota

CITY           SKY/WX    TMP DP  RH WIND       PRES   REMARKS
MONTEVIDEO     CLEAR     41  37  87 CALM      29.88S
CANBY          CLEAR     38  38  99 CALM      29.88S
MARSHALL       CLEAR     41  39  93 CALM      29.88F
REDWOOD FALLS  CLEAR     42  38  85 CALM      29.87F
OLIVIA         CLEAR     39  36  87 CALM      29.88S
PIPESTONE      PTCLDY    46  39  76 SW5       29.88F
WINDOM         CLOUDY    46  43  87 SW5       29.89F
WORTHINGTON    CLOUDY    41  40  96 S5        29.91F
JACKSON        MOCLDY    43  41  93 CALM      29.91F
TRACY          PTCLDY    48  44  85 SW12      29.88F
SLAYTON        CLOUDY    48  42  79 SW8       29.89F
$$
MNZ065>067-074>077-082>085-091>093-221100-
   South Central Minnesota

CITY           SKY/WX    TMP DP  RH WIND       PRES   REMARKS
MANKATO        CLEAR     43  40  89 S3        29.90F
NEW ULM        CLEAR     41  37  87 CALM      29.89F
ST JAMES       PTCLDY    46  41  81 SW3       29.89F
FAIRMONT       MOCLDY    45  41  86 SW7       29.92F
GLENCOE        CLEAR     43  43  98 SW3       29.88F
FARIBAULT      PTCLDY    45  41  87 S6        29.91F
OWATONNA       CLEAR     43  39  87 CALM      29.91F
WASECA         PTCLDY    39  37  93 CALM      29.92F
ALBERT LEA     CLEAR     43  43 100 S5        29.91F
$$
MNZ078>079-086>088-094>096-221100-
   Southeast Minnesota

CITY           SKY/WX    TMP DP  RH WIND       PRES   REMARKS
ROCHESTER      PTCLDY    42  41  96 SW8       29.92F
RED WING       CLOUDY    46  41  81 CALM      29.89S
STANTON        PTCLDY    45  41  87 S5        29.89F
DODGE CENTER   CLEAR     43  39  87 SW6       29.91F
WINONA         MOCLDY    48  41  76 W7        29.92S
AUSTIN         CLEAR     39  37  93 CALM      29.92F
PRESTON        CLEAR     41  38  87 SW3       29.93F
$$
ABBREVIATIONS USED IN REMARKS
   TC - TEMPERATURES IN CELSIUS
  WCI - WIND CHILL INDEX
   HX - HEAT INDEX
  VSB - VISIBILITY
$$




USA.gov is the U.S. government's official web portal to all federal, state and local government web resources and services.